Theta_e
314 320 332 332 332 332 330 328 326 324 322 319 317 316 315 313 312 310 309 307 305 302 301 300 301 302 304 305 304 303 302 300 300 299 298 298 298 297 296 295 294 294 294
314 315 331 331 331 331 329 328 327 324 322 319 317 315 314 313 311 310 308 307 304 302 301 301 300 301 301 303 304 302 300 300 299 300 299 297 298 298 296 295 294 294 294
315 315 328 330 330 330 329 328 327 323 322 318 317 315 311 310 309 308 307 305 303 302 301 301 300 300 300 302 303 302 301 300 300 301 301 297 298 297 297 295 295 294 294
315 316 325 328 329 329 329 328 326 324 320 318 316 313 310 308 307 307 306 305 303 302 301 301 300 300 300 301 302 302 302 301 298 298 298 298 298 295 294 295 295 294 294
314 316 322 328 328 328 328 328 326 324 320 318 317 316 311 308 306 306 305 304 302 301 301 300 300 300 300 299 299 299 298 300 298 296 295 294 295 296 294 293 294 294 293
313 314 318 327 327 327 328 327 326 323 320 318 317 315 310 307 305 304 304 303 302 301 300 300 300 300 300 300 300 298 297 297 297 295 296 296 295 293 293 291 292 292 293
313 314 320 326 326 326 326 326 325 322 319 318 316 313 309 306 305 304 303 302 301 300 300 299 299 299 299 299 298 298 297 296 296 295 294 294 293 293 293 292 292 291 293
313 314 315 324 325 325 325 325 322 321 319 318 315 311 311 307 305 304 303 301 300 300 299 299 299 298 297 297 297 296 295 294 294 293 293 292 292 292 292 292 291 290 291
312 313 314 323 324 324 324 324 322 320 318 317 314 312 309 307 305 304 303 301 300 300 299 298 297 297 296 296 295 295 294 294 293 293 292 292 291 291 291 291 291 290 290
310 311 314 320 323 323 323 322 321 319 318 316 314 311 309 307 306 304 303 302 300 299 298 298 297 296 295 295 295 294 293 292 292 292 292 291 291 291 291 291 291 291 290
307 308 313 317 322 323 323 321 320 319 318 316 314 312 309 307 306 304 302 302 300 299 297 297 296 295 294 294 294 293 292 292 291 291 291 291 291 291 291 291 290 290 290
308 307 308 316 321 321 322 320 319 318 317 316 314 313 309 307 305 304 302 301 300 298 297 296 295 294 294 294 294 293 292 292 291 291 291 290 291 290 290 290 290 289 289
309 308 307 314 320 320 321 319 318 316 316 315 314 310 308 306 305 303 301 300 299 297 296 295 294 294 294 293 293 292 291 291 291 290 290 290 290 290 290 289 288 288 288
309 310 308 307 319 320 320 319 317 316 315 314 314 310 308 306 305 303 300 299 298 297 295 294 294 293 293 292 292 292 291 290 290 290 290 289 289 289 288 287 287 287 286
311 311 310 308 310 318 319 319 317 316 315 314 314 311 309 307 306 303 299 298 298 296 295 294 293 293 292 291 291 291 291 290 290 290 289 288 287 286 286 286 286 287 287
311 311 310 311 310 318 319 318 318 317 315 315 314 312 310 307 304 301 299 296 295 294 293 293 293 292 291 291 291 290 290 290 289 288 287 286 286 287 287 287 287 288 288
310 311 309 309 308 316 318 318 318 317 315 315 314 311 310 306 302 298 297 296 294 293 292 292 292 291 291 290 290 290 290 289 288 287 286 286 287 287 286 286 286 286 286
309 308 306 305 306 317 319 318 317 316 315 314 313 311 308 304 299 297 296 294 293 292 291 291 290 291 291 290 290 290 289 288 287 287 286 287 286 286 286 286 285 284 284
301 301 301 301 303 314 319 318 317 315 314 313 311 308 305 300 296 295 294 292 291 290 289 290 291 292 292 291 289 288 287 286 286 286 286 286 285 286 285 284 283 282 282
298 298 298 300 302 307 314 315 314 314 313 311 308 305 301 297 295 293 292 290 290 290 290 291 291 291 290 289 287 287 286 286 286 286 285 285 285 284 284 283 282 282 282
294 294 294 295 295 301 308 307 308 308 306 304 302 299 296 295 292 290 291 290 290 290 290 289 289 288 288 288 287 286 286 286 285 285 284 285 284 283 283 282 283 283 281
291 292 292 292 292 296 297 294 294 297 299 298 295 294 293 290 290 290 289 289 289 289 288 288 287 288 288 287 287 287 286 286 285 284 284 283 283 282 282 282 282 280 279
289 289 290 290 290 291 292 290 291 291 291 290 289 289 289 288 288 288 288 288 288 288 287 286 286 287 288 288 288 287 286 285 284 283 283 282 282 281 280 280 280 278 278
288 288 288 288 288 289 289 289 290 290 289 288 288 288 288 287 287 287 287 287 287 286 286 286 286 286 287 286 286 285 285 284 284 283 281 281 280 280 279 278 277 277 278
287 287 287 287 287 287 287 287 288 288 288 287 287 287 287 287 286 286 286 286 286 286 286 286 286 285 285 284 285 284 283 283 281 281 280 279 278 278 278 277 277 277 277
286 286 286 286 286 286 287 287 287 287 287 287 287 286 286 286 286 286 285 286 286 286 286 285 285 284 284 285 284 283 282 282 281 280 279 278 278 277 277 277 277 277 277
Wind_Speed
11 22 31 35 36 38 38 35 32 38 40 37 38 36 37 37 34 32 32 32 31 29 29 30 30 28 29 29 28 29 28 25 23 20 18 13 9 8 8 9 8 8 10
15 17 28 31 34 36 38 36 37 35 39 35 35 38 43 40 37 35 33 32 32 30 30 30 31 30 29 29 31 32 31 30 25 10 10 2 3 5 7 7 5 6 7
19 20 20 31 32 36 38 37 35 36 43 30 35 31 32 35 35 34 33 33 31 31 32 29 29 31 32 31 32 33 33 26 20 21 5 3 3 6 7 6 4 4 5
17 19 20 25 34 34 37 38 37 37 37 41 36 41 32 35 34 39 38 35 33 31 31 29 28 28 30 32 30 29 26 27 22 14 5 5 10 3 2 6 4 4 4
13 18 20 31 35 37 36 36 39 40 39 45 46 48 38 30 37 38 40 37 34 33 32 30 30 29 27 28 28 25 20 22 21 14 13 12 12 8 4 3 4 6 5
12 14 21 32 36 36 38 37 39 39 43 42 40 40 40 33 34 39 42 39 35 34 33 32 30 30 27 26 24 24 22 19 15 16 13 11 5 5 4 3 2 3 2
15 14 17 20 29 36 37 38 39 37 42 39 40 46 42 43 44 40 36 44 41 36 34 32 31 30 28 26 23 23 22 20 18 15 14 11 11 10 10 7 3 2 2
19 15 15 20 29 35 36 35 38 38 41 41 42 39 53 46 39 44 35 34 38 43 39 35 33 31 29 27 24 22 21 19 18 17 14 14 12 9 7 6 5 1 1
17 19 15 19 29 36 38 36 37 39 42 39 39 43 42 39 37 40 42 35 37 42 40 37 34 32 30 27 26 23 21 19 17 16 15 13 11 9 8 7 5 4 2
9 9 14 17 31 38 40 37 42 44 45 42 44 42 43 43 44 40 39 43 41 42 40 39 38 35 32 29 26 23 20 19 17 15 14 12 11 9 8 7 5 3 3
4 6 12 17 32 36 39 39 40 39 41 44 42 37 37 37 39 38 42 45 44 44 42 42 41 39 36 31 27 25 21 19 18 15 13 11 9 9 7 4 5 2 2
7 6 0 14 26 31 34 37 39 41 42 42 41 38 39 38 40 39 38 43 46 46 46 43 41 40 37 35 32 28 24 21 18 16 14 13 10 8 6 4 3 2 2
7 8 8 7 18 28 33 34 38 41 42 41 40 37 40 40 39 39 40 44 46 47 45 44 43 40 37 35 31 29 27 22 18 15 13 12 10 9 6 3 3 2 3
6 6 7 5 13 26 33 34 36 39 41 40 38 40 41 42 41 37 42 46 47 49 44 43 41 39 36 33 30 28 26 23 20 16 13 11 9 7 6 4 2 3 5
4 5 6 4 8 20 29 35 37 39 40 38 38 39 40 40 39 36 37 41 45 44 45 43 41 37 35 33 31 29 26 24 22 16 13 10 7 6 6 3 4 4 7
5 6 7 7 4 21 28 33 35 35 40 40 38 36 39 38 38 40 41 38 37 40 44 43 43 40 35 32 31 28 26 22 20 17 13 11 10 6 7 4 4 4 6
7 8 7 6 7 20 33 32 34 35 38 37 37 37 37 37 37 39 42 42 40 40 39 43 43 40 36 33 31 28 25 23 20 16 15 12 9 6 3 4 3 4 5
10 10 9 11 19 24 33 34 34 33 35 34 34 34 35 36 37 41 38 38 40 40 40 42 40 38 35 33 31 28 25 23 20 18 16 12 10 6 4 4 6 6 7
11 8 15 16 21 8 23 26 28 33 32 28 30 33 35 35 34 33 36 35 37 35 35 35 36 37 34 29 29 30 27 23 20 18 13 10 10 6 5 6 7 8 9
15 15 18 17 20 17 13 22 24 26 28 32 32 33 36 37 38 42 42 34 37 37 38 37 39 34 32 25 24 26 27 25 21 16 15 11 9 7 6 6 7 10 11
16 17 15 13 15 12 15 14 13 18 23 30 33 32 34 35 35 38 47 46 40 40 37 35 36 33 30 26 24 21 23 24 22 19 16 11 8 8 7 6 8 8 7
15 15 11 13 15 10 14 19 17 23 33 37 37 38 39 39 42 47 40 46 48 46 40 37 31 29 28 26 23 20 18 18 20 17 13 9 9 9 7 7 6 7 9
11 11 9 11 15 12 15 20 18 27 33 35 34 35 36 37 39 44 43 40 41 44 40 37 31 26 28 26 22 20 18 17 17 13 13 11 11 9 8 7 7 10 11
11 10 11 13 14 16 18 24 28 30 33 34 34 36 38 35 35 35 37 41 39 35 36 33 31 29 29 27 23 20 19 17 16 15 13 13 11 10 7 7 10 12 10
12 13 13 14 16 20 21 22 26 35 34 34 33 33 34 35 33 30 31 33 31 39 35 33 32 30 26 25 24 21 19 15 15 17 14 12 10 9 9 10 11 12 13
14 16 17 19 20 23 23 23 25 31 35 33 31 32 34 34 34 36 35 34 37 37 37 37 34 26 25 23 20 18 16 17 15 16 14 12 10 10 8 9 11 14 15
Wind_Direction
197 180 184 184 187 185 186 187 181 169 167 159 160 165 168 169 174 178 175 174 173 174 172 165 163 165 165 162 160 152 149 144 144 127 122 124 126 116 122 112 90 73 59
189 191 178 180 183 184 184 186 183 177 166 168 167 167 169 173 175 177 174 175 173 176 173 171 169 168 165 166 165 160 151 149 155 150 124 124 130 142 143 138 102 93 65
197 193 177 180 182 185 183 182 179 178 169 170 162 158 159 165 166 172 170 172 177 177 176 176 175 173 173 169 169 169 161 159 172 172 155 125 180 147 169 161 126 127 82
198 198 177 179 184 186 179 182 179 173 169 172 161 156 162 165 170 172 172 174 177 178 176 175 175 175 175 173 174 178 177 172 160 150 142 143 135 154 131 171 141 150 93
176 192 182 176 182 179 179 184 181 177 174 170 168 167 165 179 168 172 171 171 173 176 177 176 176 175 174 170 170 174 177 178 161 162 137 113 103 109 134 165 162 146 83
200 181 180 177 175 178 178 186 186 179 178 175 170 173 169 167 165 169 169 168 170 175 180 180 180 178 176 176 172 167 164 166 160 152 151 150 144 139 126 114 145 162 162
193 183 171 179 175 178 182 186 184 177 175 174 172 169 166 170 167 170 169 167 167 173 179 181 178 177 175 173 169 163 159 154 147 141 129 121 116 127 122 117 118 126 126
197 188 171 176 177 177 180 184 183 175 177 172 170 174 173 174 173 170 174 175 169 176 178 181 177 173 171 167 165 160 153 150 144 137 130 124 117 123 128 134 144 62 315
192 194 185 174 175 179 180 180 181 174 175 175 172 172 173 172 175 175 177 180 176 179 177 176 174 171 168 166 163 160 153 150 144 138 134 128 123 117 113 116 120 129 158
177 182 193 166 172 176 181 178 181 177 178 174 173 174 175 177 176 176 178 184 184 181 179 175 174 171 167 166 164 158 154 151 145 142 138 130 125 117 109 107 98 84 130
89 204 180 166 171 175 177 178 181 178 178 176 177 176 179 178 178 180 177 185 183 183 182 177 174 171 167 167 165 160 157 154 148 146 141 131 133 125 119 120 101 69 14
60 68 77 159 169 175 176 175 179 180 180 178 178 178 177 176 178 181 181 184 182 184 184 181 177 173 171 168 167 162 161 158 154 152 146 138 141 133 132 114 91 67 1
30 35 34 135 169 172 175 174 179 179 178 177 178 173 176 176 177 177 176 181 181 181 183 181 179 176 173 169 168 165 159 158 154 157 150 145 146 140 136 121 108 85 36
30 27 29 39 177 175 175 174 179 178 176 175 176 173 176 177 175 174 175 177 181 180 184 183 179 177 174 169 165 161 158 153 152 154 155 151 151 146 141 134 96 16 353
14 35 357 20 170 178 179 175 176 177 176 177 178 179 179 179 175 173 173 176 179 179 179 179 178 175 172 168 165 162 159 156 146 155 153 146 143 138 125 94 61 29 3
337 19 18 351 8 181 179 179 175 175 176 179 183 178 179 177 173 169 171 170 168 168 173 175 176 170 169 169 165 162 158 153 148 147 137 128 124 111 100 81 43 9 347
338 33 10 331 298 193 176 181 178 172 176 181 180 178 177 175 169 168 166 165 165 165 165 170 173 168 166 169 163 160 156 152 142 145 133 131 115 108 74 60 22 359 354
23 21 9 348 334 180 177 179 173 173 174 177 176 173 171 170 165 162 162 161 162 161 161 160 160 159 157 161 158 155 150 144 143 144 144 141 125 90 45 16 353 345 350
6 8 9 356 353 91 159 169 169 166 166 168 164 164 163 158 156 153 152 154 149 147 143 143 142 141 142 147 153 151 145 142 142 137 137 138 127 95 45 12 11 10 8
8 6 7 1 16 26 126 149 156 161 165 160 158 158 156 156 153 146 142 141 137 134 136 135 139 137 134 138 147 149 143 139 136 129 122 123 112 78 58 18 21 14 5
7 5 8 8 13 35 115 83 114 127 136 139 140 143 147 147 145 141 141 139 135 127 124 126 129 133 136 137 138 143 141 141 139 139 141 125 86 70 63 53 31 13 352
9 9 12 15 27 51 102 81 80 120 131 134 133 137 141 140 140 136 135 135 137 133 128 125 125 128 131 134 132 137 143 150 149 149 137 114 91 84 76 57 41 26 359
12 17 31 36 43 73 103 93 100 116 119 118 120 124 127 132 137 135 134 133 137 135 134 130 129 131 129 130 138 134 136 147 142 129 114 104 99 96 88 64 43 14 15
21 26 47 54 49 69 89 106 115 114 113 114 117 122 123 123 127 130 134 134 135 136 134 133 133 134 139 140 136 136 135 134 131 124 112 107 102 90 81 44 30 20 17
36 46 56 65 66 76 83 99 112 117 111 112 116 118 120 121 120 121 129 130 133 137 136 134 139 141 139 146 150 150 147 140 132 131 124 114 101 81 57 40 24 15 8
55 62 66 72 72 78 84 95 106 113 116 114 116 118 118 118 116 114 107 121 129 135 139 143 143 137 136 139 140 133 130 128 134 129 120 105 88 67 47 22 10 10 5